Regional Weather Roundup
Issued by NWS Cleveland, OH

Home | Current Version | Previous Version | Text Only | Print | Product List | Glossary Off
Versions: 1 2 3 4 5 6 7 8 9 10 11 12 13 14 15 16 17 18 19 20 21 22 23 24 25 26 27 28 29 30 31 32 33 34 35 36 37 38 39 40 41 42 43 44 45 46 47 48 49 50

000
ASUS41 KCLE 032100
RWRCLE
OHIO REGIONAL WEATHER ROUNDUP
NATIONAL WEATHER SERVICE WILMINGTON, OH
500 PM EDT FRI JUL 03 2015

NOTE: "FAIR" INDICATES FEW OR NO CLOUDS BELOW 12,000 FEET WITH NO
SIGNIFICANT WEATHER AND/OR OBSTRUCTIONS TO VISIBILITY.

OHZ001>008-015>018-024>027-034-035-043-044-032200-
   NORTHWEST OHIO

CITY           SKY/WX    TMP DP  RH WIND       PRES   REMARKS
DEFIANCE       PTSUNNY   74  56  53 E5        29.92F
FINDLAY        PTSUNNY   76  57  51 NE9       29.90F
TOLEDO EXPRESS PTSUNNY   74  54  49 E9        29.93F
TOLEDO EXEC    PTSUNNY   72  50  45 NE8       29.94F
LIMA           MOSUNNY   75  60  59 N9G17     29.91F
$$

OHZ009>014-019>023-028>033-038-089-032200-
   NORTHEAST OHIO

CITY           SKY/WX    TMP DP  RH WIND       PRES   REMARKS
CLE-HOPKINS    PTSUNNY   73  56  54 N14       29.94F
CLE-LAKEFRONT  PTSUNNY   71  56  58 NE18      29.91F
CUY CO. ARPT   PTSUNNY   77  59  53 NE14      29.92F
LORAIN-ELYRIA  MOSUNNY   72  57  59 NE9       29.93S
ASHTABULA      MOSUNNY   72  54  53 MISG      29.94F
AKRON-CANTON   PTSUNNY   76  57  51 E7        29.91F
WOOSTER        NOT AVBL
MANSFIELD      PTSUNNY   76  58  53 NE5       29.91F
YOUNGSTOWN     PTSUNNY   76  53  44 SE5       29.92F
$$

OHZ042-051>053-060>062-070>072-077>081-032200-
  SOUTHWEST OHIO

CITY           SKY/WX    TMP DP  RH WIND       PRES   REMARKS
CINC-COVINGTON CLOUDY    74  65  73 N14       29.86F
CINC-LUNKEN    LGT RAIN  72  66  81 NE7       29.86F
HAMILTON       CLOUDY    72  63  73 E10       29.89S
DAYTON         NOT AVBL
WRIGHT-PAT AFB CLOUDY    73  61  64 E7        29.88F
DAYTON GENERAL CLOUDY    71  63  75 NE10      29.89R
WILMINGTON     CLOUDY    70  62  76 E8        29.88S
$$

OHZ036-037-039>041-045>050-054>059-063>069-073>076-082>088-032200-
  CENTRAL AND SOUTHEAST OHIO

CITY           SKY/WX    TMP DP  RH WIND       PRES   REMARKS
COLUMBUS       CLOUDY    73  64  73 N8        29.88F
OSU AIRPORT    PTSUNNY   73  64  73 NE10      29.89F
BOLTON FIELD   CLOUDY    72  63  73 N9        29.89F
RICKENBACK AFB NOT AVBL
NEWARK         CLOUDY    75  62  64 NE6       29.88F
MARION         PTSUNNY   78  61  55 N10       29.90F
LANCASTER      RAIN      70  66  87 CALM      29.89S FOG
ZANESVILLE     CLOUDY    75  60  59 NE6       29.88F
NEW PHILLY     CLOUDY    77  60  55 E6        29.90F
$$


USA.gov is the U.S. government's official web portal to all federal, state and local government web resources and services.